Location: Hokitika
(42.7170°S, 170.9670°E)
Time: 04:00:23
(UTC+13:00)

Cosmos 2278 Rocket - Pass Details

Date: 24 January 2019
Orbit: 839 x 847 km, 71.0° (Epoch: 22 February)

Event Time Altitude Azimuth Distance (km) Brightness Sun altitude
Rises 23:28:17 0° 196° (SSW) 3,432 6.7 -20.2°
Reaches altitude 10° 23:31:14 10° 182° (S) 2,491 5.5 -20.5°
Maximum altitude 23:35:51 25° 128° (SE) 1,672 3.8 -21.0°
Enters shadow 23:38:16 19° 93° (E) 1,927 3.8 -21.2°
